TimeCDT,TemperatureF,Dew PointF,Humidity,Sea Level PressureIn,VisibilityMPH,Wind Direction,Wind SpeedMPH,Gust SpeedMPH,PrecipitationIn,Events,Conditions,WindDirDegrees,DateUTC
12:15 AM,64.4,39.2,40,29.74,10.0,West,5.8,-,N/A,,Clear,280,2012-10-13 05:15:00
1:15 AM,64.4,39.2,40,29.73,10.0,WSW,8.1,-,N/A,,Partly Cloudy,250,2012-10-13 06:15:00
1:35 AM,64.4,39.2,40,29.72,10.0,West,9.2,-,N/A,,Partly Cloudy,270,2012-10-13 06:35:00
1:55 AM,64.4,39.2,40,29.73,10.0,WSW,5.8,-,N/A,,Mostly Cloudy,250,2012-10-13 06:55:00
2:15 AM,64.4,39.2,40,29.74,10.0,NE,3.5,-,N/A,,Mostly Cloudy,40,2012-10-13 07:15:00
2:35 AM,60.8,41.0,48,29.75,10.0,Calm,Calm,-,N/A,,Overcast,0,2012-10-13 07:35:00
3:35 AM,59.0,39.2,48,29.74,10.0,WSW,8.1,-,N/A,,Mostly Cloudy,250,2012-10-13 08:35:00
3:55 AM,59.0,39.2,48,29.74,10.0,West,5.8,-,N/A,,Overcast,260,2012-10-13 08:55:00
4:15 AM,59.0,39.2,48,29.74,10.0,West,6.9,-,N/A,,Mostly Cloudy,260,2012-10-13 09:15:00
4:35 AM,57.2,39.2,51,29.74,10.0,WSW,6.9,-,N/A,,Scattered Clouds,250,2012-10-13 09:35:00
4:55 AM,55.4,39.2,54,29.74,10.0,SW,4.6,-,N/A,,Mostly Cloudy,220,2012-10-13 09:55:00
5:15 AM,55.4,37.4,51,29.75,10.0,West,5.8,-,N/A,,Overcast,280,2012-10-13 10:15:00
5:55 AM,57.2,37.4,48,29.77,10.0,West,8.1,-,N/A,,Partly Cloudy,260,2012-10-13 10:55:00
6:15 AM,55.4,37.4,51,29.78,10.0,WNW,9.2,-,N/A,,Clear,290,2012-10-13 11:15:00
6:35 AM,55.4,35.6,47,29.79,10.0,WNW,8.1,-,N/A,,Clear,290,2012-10-13 11:35:00
6:55 AM,53.6,35.6,51,29.80,10.0,West,9.2,-,N/A,,Clear,270,2012-10-13 11:55:00
7:15 AM,53.6,35.6,51,29.81,10.0,West,8.1,-,N/A,,Clear,260,2012-10-13 12:15:00
7:35 AM,51.8,33.8,50,29.82,10.0,West,4.6,-,N/A,,Clear,260,2012-10-13 12:35:00
7:55 AM,50.0,32.0,50,29.84,10.0,SW,5.8,-,N/A,,Clear,220,2012-10-13 12:55:00
8:15 AM,50.0,32.0,50,29.84,10.0,WSW,9.2,-,N/A,,Mostly Cloudy,240,2012-10-13 13:15:00
8:35 AM,50.0,32.0,50,29.85,10.0,WSW,6.9,-,N/A,,Partly Cloudy,250,2012-10-13 13:35:00
8:55 AM,53.6,32.0,44,29.86,10.0,Calm,Calm,-,N/A,,Partly Cloudy,0,2012-10-13 13:55:00
9:15 AM,55.4,32.0,41,29.86,10.0,West,6.9,-,N/A,,Clear,260,2012-10-13 14:15:00
9:55 AM,57.2,32.0,38,29.87,8.0,West,9.2,-,N/A,,Clear,260,2012-10-13 14:55:00
10:15 AM,59.0,32.0,36,29.87,10.0,WNW,8.1,-,N/A,,Clear,290,2012-10-13 15:15:00
10:35 AM,60.8,30.2,31,29.88,10.0,WNW,12.7,17.3,N/A,,Clear,300,2012-10-13 15:35:00
10:55 AM,60.8,30.2,31,29.88,5.0,NW,11.5,-,N/A,,Haze,310,2012-10-13 15:55:00
11:15 AM,62.6,32.0,32,29.88,8.0,WNW,11.5,-,N/A,,Clear,290,2012-10-13 16:15:00
11:35 AM,62.6,32.0,32,29.89,10.0,NW,12.7,19.6,N/A,,Clear,320,2012-10-13 16:35:00
11:55 AM,62.6,32.0,32,29.89,10.0,NW,13.8,19.6,N/A,,Clear,320,2012-10-13 16:55:00
12:15 PM,64.4,32.0,30,29.89,10.0,NNW,12.7,19.6,N/A,,Clear,330,2012-10-13 17:15:00
12:35 PM,64.4,32.0,30,29.89,10.0,NNW,12.7,21.9,N/A,,Clear,340,2012-10-13 17:35:00
12:55 PM,64.4,32.0,30,29.89,10.0,NNW,12.7,20.7,N/A,,Clear,330,2012-10-13 17:55:00
1:15 PM,64.4,32.0,30,29.88,10.0,NNW,12.7,21.9,N/A,,Clear,330,2012-10-13 18:15:00
1:35 PM,66.2,32.0,28,29.88,10.0,NW,16.1,19.6,N/A,,Clear,310,2012-10-13 18:35:00
1:55 PM,64.4,32.0,30,29.88,10.0,WNW,11.5,19.6,N/A,,Clear,300,2012-10-13 18:55:00
2:35 PM,66.2,32.0,28,29.87,10.0,NNW,11.5,23.0,N/A,,Clear,330,2012-10-13 19:35:00
2:55 PM,66.2,32.0,28,29.88,10.0,NW,13.8,25.3,N/A,,Clear,320,2012-10-13 19:55:00
3:15 PM,66.2,32.0,28,29.88,10.0,NW,12.7,20.7,N/A,,Clear,310,2012-10-13 20:15:00
3:35 PM,66.2,32.0,28,29.89,10.0,NW,17.3,23.0,N/A,,Clear,310,2012-10-13 20:35:00
3:55 PM,66.2,32.0,28,29.89,10.0,NW,17.3,23.0,N/A,,Clear,320,2012-10-13 20:55:00
4:15 PM,68.0,30.2,24,29.89,10.0,NW,15.0,25.3,N/A,,Clear,310,2012-10-13 21:15:00
4:35 PM,66.2,32.0,28,29.90,10.0,NW,18.4,27.6,N/A,,Clear,320,2012-10-13 21:35:00
5:15 PM,64.4,30.2,28,29.92,10.0,NW,21.9,29.9,N/A,,Clear,320,2012-10-13 22:15:00
5:35 PM,62.6,32.0,32,29.93,10.0,NNW,18.4,25.3,N/A,,Clear,330,2012-10-13 22:35:00
5:55 PM,62.6,32.0,32,29.93,10.0,NW,13.8,20.7,N/A,,Partly Cloudy,310,2012-10-13 22:55:00
6:15 PM,62.6,32.0,32,29.94,10.0,NNW,16.1,25.3,N/A,,Partly Cloudy,330,2012-10-13 23:15:00
6:55 PM,59.0,32.0,36,29.97,10.0,NW,13.8,24.2,N/A,,Overcast,320,2012-10-13 23:55:00
7:35 PM,59.0,32.0,36,29.99,10.0,North,-9999.0,-,N/A,,Overcast,0,2012-10-14 00:35:00
7:55 PM,57.2,33.8,41,30.00,10.0,NW,17.3,24.2,N/A,,Overcast,320,2012-10-14 00:55:00
8:15 PM,57.2,35.6,44,30.01,10.0,NW,13.8,26.5,N/A,,Overcast,320,2012-10-14 01:15:00
8:35 PM,55.4,35.6,47,30.00,10.0,NW,9.2,16.1,N/A,Rain,Light Rain,320,2012-10-14 01:35:00
8:55 PM,55.4,35.6,47,30.01,10.0,NW,9.2,-,N/A,,Overcast,320,2012-10-14 01:55:00
9:55 PM,53.6,35.6,51,30.04,10.0,NW,5.8,-,N/A,,Overcast,320,2012-10-14 02:55:00
10:15 PM,53.6,35.6,51,30.04,10.0,WNW,5.8,-,N/A,,Overcast,290,2012-10-14 03:15:00
10:55 PM,53.6,35.6,51,30.05,10.0,WNW,4.6,-,N/A,,Overcast,290,2012-10-14 03:55:00
11:55 PM,53.6,35.6,51,30.06,10.0,West,9.2,-,N/A,,Mostly Cloudy,280,2012-10-14 04:55:00